Weather History for Hamilton Island, QU

Change the Weather History Date:

Saturday, March 9, 2013

  Actual Average Record
Temperature  
Mean Temperature 78 °F -  
Max Temperature 82 °F - - ()
Min Temperature 74 °F - - ()
Cooling Degree Days 13    
Growing Degree Days 28 (Base 50)    
Moisture  
Dew Point 74 °F    
Average Humidity 87    
Maximum Humidity 100    
Minimum Humidity 71    
Precipitation  
Precipitation 0.16 in - - ()
Sea Level Pressure  
Sea Level Pressure 29.84 in    
Wind  
Wind Speed 25 mph ()    
Max Wind Speed 34 mph    
Max Gust Speed 45 mph    
T = Trace of Precipitation, MM = Missing Value Source: Averaged Metar Reports

Daily Weather History Graph

Daily Weather History Graph

Search for Another Location

Airport:

Trip Planner

Search our weather history database for the weather conditions in past years. The results will help you decide how hot, cold, wet, or windy it might be!

Date:

Astronomy

Mar. 09, 2013 Rise Set
Actual Time 6:04 AM AEST 6:24 PM AEST
Civil Twilight 5:42 AM AEST 6:46 PM AEST
Nautical Twilight 5:16 AM AEST 7:12 PM AEST
Astronomical Twilight 4:50 AM AEST 7:38 PM AEST
Moon 3:16 AM AEST (3/9) 4:19 PM AEST (3/9)
Length of Visible Light 13h 04m
Length of Day
12h 20m
Waning Crescent, 9% of the Moon is Illuminated
Mar 9
Waning Crescent
Mar 12
New
Mar 20
First Quarter
Mar 27
Full
Apr 3
Last Quarter

Hourly Weather History & Observations

Time (AEST) Temp. Heat Index Dew Point Humidity Pressure Visibility Wind Dir Wind Speed Gust Speed Precip Events Conditions
12:00 AM 78 °F - 72 °F 78% 29.85 in - SE 26.5 mph - -  
12:00 AM 77.0 °F - 73.4 °F 89% 29.86 in - SE 26.5 mph - N/A   Unknown
12:30 AM 78.8 °F - 73.4 °F 83% 29.83 in - SE 26.5 mph - N/A   Unknown
1:00 AM 77.0 °F - 75.2 °F 94% 29.83 in - SE 26.5 mph - N/A   Unknown
1:30 AM 77.0 °F - 73.4 °F 89% 29.83 in - SE 28.8 mph - N/A   Unknown
2:00 AM 77.0 °F - 73.4 °F 89% 29.83 in - SE 26.5 mph - N/A   Unknown
2:23 AM 75.2 °F - 73.4 °F 94% 29.83 in - SE 25.3 mph 36.8 mph N/A   Unknown
3:00 AM 77 °F - 74 °F 88% 29.81 in - SE 27.6 mph - -  
3:00 AM 77.0 °F - 73.4 °F 89% 29.80 in - SE 27.6 mph - N/A   Unknown
3:30 AM 77.0 °F - 75.2 °F 94% 29.80 in - SE 26.5 mph - N/A   Unknown
4:00 AM 77.0 °F - 75.2 °F 94% 29.83 in - SE 26.5 mph - N/A   Unknown
4:30 AM 75.2 °F - 73.4 °F 94% 29.83 in - SE 28.8 mph - N/A   Unknown
5:00 AM 77.0 °F - 73.4 °F 89% 29.80 in - SE 26.5 mph - N/A   Unknown
5:30 AM 75.2 °F - 73.4 °F 94% 29.83 in - SE 24.2 mph - N/A   Unknown
6:00 AM 76 °F - 75 °F 94% 29.82 in - SE 21.9 mph - -  
6:00 AM 75.2 °F - 75.2 °F 100% 29.83 in - SE 21.9 mph - N/A   Unknown
6:30 AM 77.0 °F - 75.2 °F 94% 29.83 in - SE 24.2 mph - N/A   Unknown
6:53 AM 77.0 °F - 75.2 °F 94% 29.83 in - ESE 24.2 mph 35.7 mph N/A   Unknown
7:00 AM 77.0 °F - 73.4 °F 89% 29.83 in - ESE 23.0 mph - N/A   Unknown
7:19 AM 75.2 °F - 73.4 °F 94% 29.83 in - ESE 24.2 mph 35.7 mph N/A   Unknown
7:30 AM 77.0 °F - 73.4 °F 89% 29.83 in - East 25.3 mph - N/A   Unknown
8:00 AM 80.6 °F 85.4 °F 73.4 °F 79% 29.83 in - ESE 27.6 mph - N/A   Unknown
8:30 AM 80.6 °F 85.4 °F 73.4 °F 79% 29.86 in - ESE 25.3 mph - N/A   Unknown
9:00 AM 82 °F - 74 °F 71% 29.86 in - ESE 26.5 mph - -  
9:00 AM 82.4 °F 88.2 °F 73.4 °F 74% 29.86 in - ESE 26.5 mph - N/A   Unknown
9:30 AM 80.6 °F 85.4 °F 73.4 °F 79% 29.86 in - SE 25.3 mph - N/A   Unknown
10:00 AM 80.6 °F 84.6 °F 71.6 °F 74% 29.86 in - ESE 27.6 mph - N/A   Unknown
10:30 AM 80.6 °F 85.4 °F 73.4 °F 79% 29.86 in - ESE 28.8 mph - N/A   Unknown
11:00 AM 80.6 °F 85.4 °F 73.4 °F 79% 29.86 in - ESE 28.8 mph - N/A   Unknown
11:30 AM 80.6 °F 86.2 °F 75.2 °F 84% 29.86 in - SE 23.0 mph - N/A   Unknown
12:00 PM 82 °F - 76 °F 76% 29.86 in - SE 25.3 mph - -  
12:00 PM 82.4 °F 89.5 °F 75.2 °F 79% 29.86 in - SE 25.3 mph - N/A   Unknown
12:30 PM 78.8 °F - 75.2 °F 89% 29.83 in - SSE 26.5 mph - N/A   Unknown
1:00 PM 78.8 °F - 75.2 °F 89% 29.83 in - SSE 25.3 mph - N/A   Unknown
1:30 PM 78.8 °F - 75.2 °F 89% 29.83 in - SE 28.8 mph - N/A   Unknown
2:00 PM 80.6 °F 86.2 °F 75.2 °F 84% 29.83 in - SE 26.5 mph - N/A   Unknown
2:30 PM 80.6 °F 86.2 °F 75.2 °F 84% 29.80 in - SE 27.6 mph - N/A   Unknown
3:00 PM 81 °F - 74 °F 74% 29.81 in - SE 27.6 mph - -  
3:00 PM 80.6 °F 85.4 °F 73.4 °F 79% 29.80 in - SE 27.6 mph - N/A   Unknown
3:30 PM 80.6 °F 86.2 °F 75.2 °F 84% 29.80 in - SE 26.5 mph - N/A   Unknown
4:00 PM 80.6 °F 84.6 °F 71.6 °F 74% 29.80 in - SE 27.6 mph - N/A   Unknown
4:30 PM 80.6 °F 85.4 °F 73.4 °F 79% 29.80 in - SE 26.5 mph - N/A   Unknown
5:00 PM 80.6 °F 86.2 °F 75.2 °F 84% 29.83 in - SE 25.3 mph - N/A   Unknown
5:30 PM 78.8 °F - 73.4 °F 83% 29.83 in - SE 27.6 mph - N/A   Unknown
6:00 PM 78 °F - 74 °F 84% 29.84 in - SSE 29.9 mph - -  
6:00 PM 78.8 °F - 73.4 °F 83% 29.83 in - SSE 29.9 mph - N/A   Unknown
6:30 PM 78.8 °F - 73.4 °F 83% 29.83 in - SE 31.1 mph - N/A   Unknown
7:00 PM 78.8 °F - 73.4 °F 83% 29.86 in - SSE 28.8 mph - N/A   Unknown
7:27 PM 77.0 °F - 73.4 °F 89% 29.83 in - SSE 29.9 mph 44.9 mph N/A   Unknown
7:30 PM 75.2 °F - 75.2 °F 100% 29.86 in - SE 32.2 mph 44.9 mph N/A   Unknown
8:00 PM 77.0 °F - 75.2 °F 94% 29.86 in - SE 25.3 mph - N/A   Unknown
8:30 PM 77.0 °F - 75.2 °F 94% 29.86 in - SSE 25.3 mph - N/A   Unknown
9:00 PM 76 °F - 76 °F 98% 29.88 in - SSE 27.6 mph - -  
9:00 PM 77.0 °F - 75.2 °F 94% 29.89 in - SSE 27.6 mph - N/A   Unknown
9:12 PM 75.2 °F - 75.2 °F 100% 29.86 in - SE 28.8 mph 41.4 mph N/A   Unknown
9:30 PM 75.2 °F - 71.6 °F 89% 29.89 in - SE 31.1 mph - N/A   Unknown
9:50 PM 77.0 °F - 75.2 °F 94% 29.86 in - SE 27.6 mph 40.3 mph N/A   Unknown
10:00 PM 75.2 °F - 75.2 °F 100% 29.89 in - SE 32.2 mph - N/A   Unknown
10:30 PM 75.2 °F - 73.4 °F 94% 29.89 in - SE 34.5 mph - N/A   Unknown
11:00 PM 77.0 °F - 73.4 °F 89% 29.89 in - ESE 29.9 mph - N/A   Unknown
11:30 PM 77.0 °F - 73.4 °F 89% 29.89 in - ESE 18.4 mph - N/A   Unknown